This is the latest recevied weather packets stored in our database for station/object N8ESC. If no packets are shown the sender has not sent any weather packets the latest 10 day(s).
| Time | Temp. | Humidity | Pressure | Rain* | Wind** | Luminosity | Snow |
|---|---|---|---|---|---|---|---|
| 1777507892 | 7.78° C | 58% | 1013.3 hPa | 0 mm | - | 9 W/m² | - |
| 1777507589 | 7.78° C | 59% | 1013 hPa | 0 mm | - | 12 W/m² | - |
| 1777507286 | 8.33° C | 57% | 1013 hPa | 0 mm | - | 16 W/m² | - |
| 1777506983 | 7.78° C | 61% | 1013.2 hPa | 0 mm | - | 16 W/m² | - |
| 1777506681 | 7.78° C | 64% | 1013 hPa | 0 mm | - | 17 W/m² | - |
| 1777506377 | 7.78° C | 64% | 1012.9 hPa | 0 mm | - | 17 W/m² | - |
| 1777506073 | 7.78° C | 64% | 1013 hPa | 0 mm | - | 19 W/m² | - |
| 1777505769 | 7.78° C | 63% | 1013 hPa | 0 mm | - | 30 W/m² | - |
| 1777505466 | 7.78° C | 65% | 1013 hPa | 0 mm | - | 39 W/m² | - |
| 1777505162 | 7.78° C | 65% | 1013 hPa | 0 mm | - | 50 W/m² | - |
| 1777504859 | 7.78° C | 66% | 1012.9 hPa | 0 mm | - | 59 W/m² | - |
| 1777504556 | 7.78° C | 67% | 1012.9 hPa | 0 mm | - | 72 W/m² | - |
| 1777504252 | 8.33° C | 67% | 1012.8 hPa | 0 mm | - | 75 W/m² | - |
| 1777503948 | 8.33° C | 67% | 1012.8 hPa | 0 mm | - | 73 W/m² | - |
| 1777503644 | 7.78° C | 66% | 1012.8 hPa | 0 mm | - | 67 W/m² | - |
| 1777503341 | 7.78° C | 66% | 1012.7 hPa | 0 mm | - | 53 W/m² | - |
| 1777503037 | 7.78° C | 65% | 1012.8 hPa | 0 mm | - | 50 W/m² | - |
| 1777502735 | 8.33° C | 64% | 1012.8 hPa | 0 mm | - | 55 W/m² | - |
| 1777502432 | 8.33° C | 64% | 1012.8 hPa | 0 mm | - | 65 W/m² | - |
| 1777502129 | 8.33° C | 64% | 1012.8 hPa | 0 mm | - | 90 W/m² | - |
| 1777501827 | 8.33° C | 62% | 1012.7 hPa | 0 mm | - | 110 W/m² | - |
| 1777501523 | 8.33° C | 62% | 1012.8 hPa | 0 mm | - | 138 W/m² | - |
| 1777501220 | 7.78° C | 64% | 1012.7 hPa | 0 mm | - | 131 W/m² | - |
| 1777500918 | 7.78° C | 64% | 1012.7 hPa | 0 mm | - | 135 W/m² | - |
| 1777500615 | 7.78° C | 64% | 1012.8 hPa | 0 mm | - | 101 W/m² | - |
* Rain latest hour (hover to see other rain measurements)
** Current wind speed in m/s (hover to see current wind gust speed)